E3TESTER

导读

E3TESTER(NORAD编号66662)是一颗聚焦电磁环境效应(E3)测试的技术验证卫星,名称中的“E3”直接对应其核心任务方向。它主要针对航天器在轨运行中面临的核电磁脉冲、高强度辐射场等复杂电磁干扰场景,开展设备抗扰性与辐射发射特性的空间实测验证,弥补地面实验室难以完全模拟太空电磁环境的不足。 该卫星通过搭载标准化测试设备,获取真实轨道环境下的电磁数据,为完善航天电磁兼容设计标准、提升航天器电磁生存能力提供关键支撑,对保障后续航天器在轨运行安全具有重要技术探索意义。

基本信息
目录编号:
66662
目录名称:
E3TESTER
国际标识:
2025-274N
轨道中心:
EARTH
卫星名称:
E3TESTER
卫星全名:
E3TESTER
卫星状态:
在轨 (已飞行289 天)
发射日期:
2025-11-26 UTC
国别 :
韩国 (KR)
星等 :
--
该卫星已列入 空间交会检测服务 Space Conjunction Data Service (SCDS) ,当前飞行风险评估等级: 无高风险
轨道信息
数据来源 国际轨道数据
星历时间: 2026-09-11T14:37:52+0800
8小时前
查看轨道信息
半长轴: 6962.18km
偏心率: 0.0016416
轨道倾角: 97.748°
近地点辐角 91.955°
升交点赤经 182.664°
平近点角 268.355°
近地点: 572.613km
远地点: 595.473km
周期: 96.356分钟
每日圈数: 14.944621
详细信息
使用方式:
暂无
2D轨道图
3D轨道图
轨道高度分析图
轨道倾角分析图
轨道综合分析图
查看轨道综合分析图
交会数据列表
事件ID 空间交会对象 最接近时刻(TCA) 交会距离 交会风险概率(CRP) 交会风险指数(CRI) 操作
CDM_260906-043102-066606-666226
E3TESTER (66662)
2026-09-06T
04:31:42+0000
1.742 km
极远距离
4.210826E-6 低风险 0.47
与全量物体交会距离演化趋势
与全量物体交会风险概率演化趋势